Location: Okie-Tex Star Party
(36.8978°N, 102.9520°W)
Time: 23:05:44
(UTC-05:00)

Oscar 16 - Visible Passes

Search period start: 29 July 2015 00:00
Search period end: 08 August 2015 00:00
Orbit: 775 x 791 km, 98.5° (Epoch: 29 July)

Date Brightness Start Highest point End Pass type
(mag) Time Alt. Az. Time Alt. Az. Time Alt. Az.
29 Jul 11.5 03:08:06 10° NNE 03:12:05 46° ENE 03:12:05 46° ENE visible
29 Jul 12.4 04:48:51 10° NNW 04:52:09 17° WNW 04:52:39 16° WNW visible
30 Jul 12.4 02:37:11 10° NE 02:40:06 24° ENE 02:40:06 24° ENE visible
30 Jul 11.7 04:16:17 10° N 04:20:40 32° WNW 04:20:40 32° WNW visible
31 Jul 13.2 02:07:24 10° ENE 02:08:07 11° ENE 02:08:07 11° ENE visible
31 Jul 11.0 03:44:20 10° N 03:48:41 57° NNW 03:48:41 57° NNW visible
01 Aug 11.5 03:12:49 10° NNE 03:16:42 47° NE 03:16:42 47° NE visible
01 Aug 12.5 04:53:53 10° NNW 04:56:51 15° WNW 04:57:16 15° WNW visible
02 Aug 12.4 02:41:47 10° NE 02:44:43 25° ENE 02:44:43 25° ENE visible
02 Aug 11.8 04:21:08 10° N 04:25:17 29° WNW 04:25:17 29° WNW visible
03 Aug 13.1 02:11:42 10° ENE 02:12:44 13° ENE 02:12:44 13° ENE visible
03 Aug 11.2 03:49:07 10° N 03:53:18 50° NNW 03:53:18 50° NNW visible
04 Aug 11.5 03:17:32 10° NNE 03:21:19 47° NE 03:21:19 47° NE visible
04 Aug 12.6 04:58:57 10° NNW 05:01:34 14° WNW 05:01:53 13° WNW visible
05 Aug 12.4 02:46:25 10° NNE 02:49:20 27° ENE 02:49:20 27° ENE visible
05 Aug 12.0 04:26:00 10° NNW 04:29:54 26° WNW 04:29:54 26° WNW visible
06 Aug 13.1 02:16:06 10° NE 02:17:20 14° ENE 02:17:20 14° ENE visible
06 Aug 11.4 03:53:54 10° N 03:57:54 45° NW 03:57:54 45° NW visible
07 Aug 11.5 03:22:16 10° NNE 03:25:55 46° NNE 03:25:55 46° NNE visible
07 Aug 12.7 05:04:07 10° NW 05:06:16 12° WNW 05:06:29 12° WNW visible
